CZ-6A DEB, 60213

Orbit data source: Space-Track

CZ-6A DEB, 60213 is space debris in SSO originally from a launch on Thu, 04 Jul 2024 UTC launched from the Taiyaun Space Center, China (TSC). Debris objects in space refer to the collection of defunct objects orbiting the Earth. Examples of debris include non-operational satellites, rocket bodies, and fragments generated from explosions, collisions, or faulty payload assembly.

Loading next visibility...
Identifier
60213, 2024-126C
Orbit
SSO
Country
Flag of CNCN / PRC
Related business
Manufacturer
SAST
Mission
Spacecraft
Bus & Motor
Unknown
Mass
~50 kg wet, ~50 kg dry
Launch date (UTC)
2024-07-04 (1 year ago)
Launch vehicle
Unknown
Launch site
Taiyaun Space Center, China (TSC)
Object type
Payload
Rocket body
Debris
Shape & HBR
Cone, 0.3 m
Radar Cross Section
0.159 m², Large (>1 m²)

Expand to show TLE details & history
Last TLE update: 11 hours ago

TLE from 11 hours ago
0 CZ-6A DEB
1 60213U 24126C   25287.88459202  .00013812  00000-0  10266-2 0  9991
2 60213  97.8383 299.7891 0007804  52.9340 307.2597 15.03095242 69794
Epoch: 2025-10-14T21:13Z
TLE epoch observation values (Epoch: 2025-10-14T21:13:48.750Z)
Latitude
-0.00005°
Longitude
-42.33063°
Altitude
557.139 km
Speed
7.585 km/s
True Right ascension
19h 59m 09s
True Declination
0° 00' 00"
Sunlit
Object was in daylight at epoch
Visualization orbit readout
Latitude
Unknown
Longitude
Unknown
Altitude
Unknown
Speed
Unknown
Apparent Right ascension
Unknown
Apparent Declination
Unknown
Sunlit
N/A
Visualization observer readout
Local Sidereal Time
02:55:30
Azimuth
Unknown
Elevation
Unknown
Doppler factor
Unknown
Orbital elements
Apogee altitude
559.776 km
Perigee altitude
548.956 km
Semi-major axis
6,932.503 km
Eccentricity
0.00078
Inclination
97.8383°
RAAN
299.7891°
Arg. of periapsis
52.934°
True anomaly
307.18848°
Mean anomaly
307.2597°
Eccentric anomaly
307.2241°
Mean motion
3.76018 °/min
Orbital period
95.74 mins
BSTAR
0.0010266
Loading maneuver chart data...
Computing Atmospheric mass density...
Loading historical data...
Loading historical data...
Loading historical data...
Loading historical data...
Loading historical data...
Loading historical data...
Loading historical data...
Other satellites on launch #126 in the year 2024 (2024-07-04 UTC)

Documentation

Showing up to 5 results
|